Time,TemperatureF,DewpointF,PressureIn,WindDirection,WindDirectionDegrees,WindSpeedMPH,WindSpeedGustMPH,Humidity,HourlyPrecipIn,Conditions,Clouds,dailyrainin,SoftwareType,DateUTC
2013-01-19 09:32:00,6.5,-10.4,30.43,ENE,72,0.0,1.0,45,0.00,,,0.00,Wunderground v.1.13,2013-01-19 18:32:00,
2013-01-19 09:33:00,6.5,-11.3,30.43,NE,55,1.0,2.0,43,0.00,,,0.00,Wunderground v.1.13,2013-01-19 18:33:00,
2013-01-19 09:38:00,6.5,-11.8,30.43,East,90,2.0,3.0,42,0.00,,,0.00,Wunderground v.1.13,2013-01-19 18:38:00,
2013-01-19 09:43:00,6.5,-10.8,30.43,NE,55,4.0,4.0,44,0.00,,,0.00,Wunderground v.1.13,2013-01-19 18:43:00,
2013-01-19 09:48:00,6.5,-11.8,30.43,NE,53,0.0,1.0,42,0.00,,,0.00,Wunderground v.1.13,2013-01-19 18:48:00,
2013-01-19 09:53:00,6.5,-11.3,30.43,NE,55,3.0,3.0,43,0.00,,,0.00,Wunderground v.1.13,2013-01-19 18:53:00,
2013-01-19 09:58:00,6.3,-11.5,30.42,East,90,0.0,2.0,43,0.00,,,0.00,Wunderground v.1.13,2013-01-19 18:58:00,
2013-01-19 10:03:00,6.5,-11.3,30.42,ENE,67,0.0,3.0,43,0.00,,,0.00,Wunderground v.1.13,2013-01-19 19:03:00,
2013-01-19 10:08:00,6.3,-11.5,30.42,North,10,1.0,2.0,43,0.00,,,0.00,Wunderground v.1.13,2013-01-19 19:08:00,
2013-01-19 10:13:00,6.3,-11.0,30.43,NNE,13,0.0,3.0,44,0.00,,,0.00,Wunderground v.1.13,2013-01-19 19:13:00,
2013-01-19 10:18:00,6.1,-11.2,30.43,NNE,13,1.0,4.0,44,0.00,,,0.00,Wunderground v.1.13,2013-01-19 19:18:00,
2013-01-19 10:24:00,6.1,-10.7,30.43,NE,42,1.0,1.0,45,0.00,,,0.00,Wunderground v.1.13,2013-01-19 19:24:00,
2013-01-19 10:29:00,6.1,-10.7,30.43,NNE,26,3.0,6.0,45,0.00,,,0.00,Wunderground v.1.13,2013-01-19 19:29:00,
2013-01-19 10:34:00,6.1,-10.7,30.43,North,9,2.0,4.0,45,0.00,,,0.00,Wunderground v.1.13,2013-01-19 19:34:00,
2013-01-19 10:39:00,6.1,-10.7,30.43,NNE,32,0.0,4.0,45,0.00,,,0.00,Wunderground v.1.13,2013-01-19 19:39:00,
2013-01-19 10:44:00,6.1,-10.7,30.43,NNE,23,1.0,4.0,45,0.00,,,0.00,Wunderground v.1.13,2013-01-19 19:44:00,
2013-01-19 10:50:00,6.1,-11.2,30.43,NNE,28,1.0,4.0,44,0.00,,,0.00,Wunderground v.1.13,2013-01-19 19:50:00,
2013-01-19 10:55:00,6.3,-11.0,30.43,NE,43,0.0,6.0,44,0.00,,,0.00,Wunderground v.1.13,2013-01-19 19:55:00,
2013-01-19 11:00:00,6.3,-10.6,30.43,ENE,63,0.0,2.0,45,0.00,,,0.00,Wunderground v.1.13,2013-01-19 20:00:00,
2013-01-19 11:05:00,6.3,-10.6,30.43,ENE,59,2.0,4.0,45,0.00,,,0.00,Wunderground v.1.13,2013-01-19 20:05:00,
2013-01-19 11:10:00,6.5,-10.4,30.42,ENE,66,0.0,1.0,45,0.00,,,0.00,Wunderground v.1.13,2013-01-19 20:10:00,
2013-01-19 11:15:00,6.5,-10.4,30.42,NE,39,0.0,2.0,45,0.00,,,0.00,Wunderground v.1.13,2013-01-19 20:15:00,
2013-01-19 11:20:00,6.5,-10.4,30.42,NE,49,0.0,1.0,45,0.00,,,0.00,Wunderground v.1.13,2013-01-19 20:20:00,
2013-01-19 11:25:00,6.5,-10.4,30.42,NE,44,0.0,3.0,45,0.00,,,0.00,Wunderground v.1.13,2013-01-19 20:25:00,
2013-01-19 11:31:00,6.7,-10.2,30.42,NE,44,1.0,2.0,45,0.00,,,0.00,Wunderground v.1.13,2013-01-19 20:31:00,
2013-01-19 11:36:00,6.7,-9.7,30.42,ENE,63,0.0,1.0,46,0.00,,,0.00,Wunderground v.1.13,2013-01-19 20:36:00,
2013-01-19 11:41:00,6.7,-10.2,30.42,NE,47,2.0,2.0,45,0.00,,,0.00,Wunderground v.1.13,2013-01-19 20:41:00,
2013-01-19 11:46:00,6.9,-10.0,30.42,NNE,33,0.0,4.0,45,0.00,,,0.00,Wunderground v.1.13,2013-01-19 20:46:00,
2013-01-19 11:52:00,7.0,-9.0,30.42,NNE,32,3.0,4.0,47,0.00,,,0.00,Wunderground v.1.13,2013-01-19 20:52:00,
2013-01-19 11:57:00,7.0,-9.0,30.42,ENE,60,4.0,4.0,47,0.00,,,0.00,Wunderground v.1.13,2013-01-19 20:57:00,
2013-01-19 12:02:00,7.2,-10.2,30.42,NNE,15,0.0,2.0,44,0.00,,,0.00,Wunderground v.1.13,2013-01-19 21:02:00,
2013-01-19 12:07:00,7.4,-10.5,30.42,NE,38,0.0,2.0,43,0.00,,,0.00,Wunderground v.1.13,2013-01-19 21:07:00,
2013-01-19 12:13:00,7.4,-10.5,30.41,NNE,23,1.0,5.0,43,0.00,,,0.00,Wunderground v.1.13,2013-01-19 21:13:00,
2013-01-19 12:18:00,7.6,-9.8,30.41,NE,47,2.0,4.0,44,0.00,,,0.00,Wunderground v.1.13,2013-01-19 21:18:00,
2013-01-19 12:23:00,7.7,-9.3,30.41,NNE,27,0.0,1.0,45,0.00,,,0.00,Wunderground v.1.13,2013-01-19 21:23:00,
2013-01-19 12:29:00,7.7,-9.3,30.41,NE,46,1.0,4.0,45,0.00,,,0.00,Wunderground v.1.13,2013-01-19 21:29:00,
2013-01-19 12:34:00,7.7,-9.3,30.41,NE,55,0.0,3.0,45,0.00,,,0.00,Wunderground v.1.13,2013-01-19 21:34:00,
2013-01-19 12:39:00,7.6,-9.4,30.41,ENE,69,1.0,2.0,45,0.00,,,0.00,Wunderground v.1.13,2013-01-19 21:39:00,
2013-01-19 12:44:00,7.4,-8.2,30.41,ENE,61,1.0,2.0,48,0.00,,,0.00,Wunderground v.1.13,2013-01-19 21:44:00,
2013-01-19 12:49:00,7.2,-8.8,30.41,East,92,0.0,1.0,47,0.00,,,0.00,Wunderground v.1.13,2013-01-19 21:49:00,
2013-01-19 12:54:00,7.2,-9.3,30.41,NE,55,0.0,1.0,46,0.00,,,0.00,Wunderground v.1.13,2013-01-19 21:54:00,
2013-01-19 12:59:00,7.4,-9.1,30.40,ENE,60,0.0,2.0,46,0.00,,,0.00,Wunderground v.1.13,2013-01-19 21:59:00,
2013-01-19 13:04:00,7.7,-9.3,30.40,NE,53,0.0,3.0,45,0.00,,,0.00,Wunderground v.1.13,2013-01-19 22:04:00,
2013-01-19 13:10:00,7.9,-9.5,30.40,NE,34,4.0,4.0,44,0.00,,,0.00,Wunderground v.1.13,2013-01-19 22:10:00,
2013-01-19 13:15:00,8.3,-9.2,30.40,NE,47,0.0,1.0,44,0.00,,,0.00,Wunderground v.1.13,2013-01-19 22:15:00,
2013-01-19 13:20:00,8.4,-9.5,30.40,NE,45,3.0,3.0,43,0.00,,,0.00,Wunderground v.1.13,2013-01-19 22:20:00,
2013-01-19 13:25:00,8.6,-8.9,30.39,ENE,71,0.0,1.0,44,0.00,,,0.00,Wunderground v.1.13,2013-01-19 22:25:00,
2013-01-19 13:31:00,8.6,-9.4,30.39,East,79,2.0,5.0,43,0.00,,,0.00,Wunderground v.1.13,2013-01-19 22:31:00,
2013-01-19 13:36:00,8.8,-9.2,30.39,NE,44,0.0,2.0,43,0.00,,,0.00,Wunderground v.1.13,2013-01-19 22:36:00,
2013-01-19 13:41:00,8.8,-8.7,30.39,NNE,18,1.0,1.0,44,0.00,,,0.00,Wunderground v.1.13,2013-01-19 22:41:00,
2013-01-19 13:46:00,8.8,-8.7,30.39,NE,51,2.0,3.0,44,0.00,,,0.00,Wunderground v.1.13,2013-01-19 22:46:00,
2013-01-19 13:51:00,8.8,-8.7,30.39,ENE,64,3.0,4.0,44,0.00,,,0.00,Wunderground v.1.13,2013-01-19 22:51:00,
2013-01-19 13:56:00,9.0,-8.5,30.38,ENE,59,0.0,3.0,44,0.00,,,0.00,Wunderground v.1.13,2013-01-19 22:56:00,
2013-01-19 14:02:00,9.2,-8.8,30.38,North,10,0.0,3.0,43,0.00,,,0.00,Wunderground v.1.13,2013-01-19 23:02:00,
2013-01-19 14:07:00,9.2,-8.3,30.38,North,360,2.0,2.0,44,0.00,,,0.00,Wunderground v.1.13,2013-01-19 23:07:00,
2013-01-19 14:12:00,9.3,-8.3,30.37,East,101,1.0,1.0,44,0.00,,,0.00,Wunderground v.1.13,2013-01-19 23:12:00,
2013-01-19 14:17:00,9.3,-8.7,30.37,NE,37,1.0,5.0,43,0.00,,,0.00,Wunderground v.1.13,2013-01-19 23:17:00,
2013-01-19 14:22:00,9.5,-9.0,30.37,NNE,20,1.0,2.0,42,0.00,,,0.00,Wunderground v.1.13,2013-01-19 23:22:00,
2013-01-19 14:28:00,9.5,-8.1,30.37,ENE,69,1.0,1.0,44,0.00,,,0.00,Wunderground v.1.13,2013-01-19 23:28:00,
2013-01-19 14:33:00,9.2,-7.0,30.37,ENE,60,0.0,0.0,47,0.00,,,0.00,Wunderground v.1.13,2013-01-19 23:33:00,
2013-01-19 14:38:00,8.3,-7.0,30.37,SE,124,0.0,1.0,49,0.00,,,0.00,Wunderground v.1.13,2013-01-19 23:38:00,
2013-01-19 14:43:00,7.4,-7.8,30.36,SE,124,1.0,1.0,49,0.00,,,0.00,Wunderground v.1.13,2013-01-19 23:43:00,
2013-01-19 14:48:00,6.9,-8.3,30.36,East,100,0.0,1.0,49,0.00,,,0.00,Wunderground v.1.13,2013-01-19 23:48:00,
2013-01-19 14:53:00,6.7,-8.0,30.36,ESE,109,0.0,1.0,50,0.00,,,0.00,Wunderground v.1.13,2013-01-19 23:53:00,
2013-01-19 14:58:00,6.1,-7.4,30.36,ESE,109,0.0,1.0,53,0.00,,,0.00,Wunderground v.1.13,2013-01-19 23:58:00,
2013-01-19 15:04:00,5.8,-8.1,30.36,ESE,109,0.0,1.0,52,0.00,,,0.00,Wunderground v.1.13,2013-01-20 00:04:00,
2013-01-19 15:09:00,5.6,-7.5,30.36,ESE,109,0.0,1.0,54,0.00,,,0.00,Wunderground v.1.13,2013-01-20 00:09:00,
2013-01-19 15:14:00,5.4,-6.9,30.35,SE,132,0.0,1.0,56,0.00,,,0.00,Wunderground v.1.13,2013-01-20 00:14:00,
2013-01-19 15:19:00,5.2,-6.4,30.35,SE,132,0.0,0.0,58,0.00,,,0.00,Wunderground v.1.13,2013-01-20 00:19:00,
2013-01-19 15:24:00,4.8,-6.4,30.35,SE,132,0.0,1.0,59,0.00,,,0.00,Wunderground v.1.13,2013-01-20 00:24:00,
2013-01-19 15:29:00,4.8,-7.5,30.34,SE,132,0.0,1.0,56,0.00,,,0.00,Wunderground v.1.13,2013-01-20 00:29:00,
2013-01-19 15:34:00,5.0,-7.7,30.34,SE,132,0.0,1.0,55,0.00,,,0.00,Wunderground v.1.13,2013-01-20 00:34:00,
2013-01-19 15:39:00,5.2,-8.6,30.34,SE,132,0.0,1.0,52,0.00,,,0.00,Wunderground v.1.13,2013-01-20 00:39:00,
2013-01-19 15:44:00,5.8,-8.1,30.34,ESE,111,0.0,1.0,52,0.00,,,0.00,Wunderground v.1.13,2013-01-20 00:44:00,
2013-01-19 15:49:00,5.6,-7.9,30.34,ESE,111,1.0,1.0,53,0.00,,,0.00,Wunderground v.1.13,2013-01-20 00:49:00,
2013-01-19 15:54:00,5.2,-8.6,30.34,SE,135,0.0,2.0,52,0.00,,,0.00,Wunderground v.1.13,2013-01-20 00:54:00,
2013-01-19 15:59:00,5.0,-8.4,30.34,SE,135,0.0,1.0,53,0.00,,,0.00,Wunderground v.1.13,2013-01-20 00:59:00,
2013-01-19 16:04:00,4.7,-8.0,30.34,SE,135,0.0,0.0,55,0.00,,,0.00,Wunderground v.1.13,2013-01-20 01:04:00,
2013-01-19 16:09:00,4.5,-7.8,30.32,SE,135,0.0,0.0,56,0.00,,,0.00,Wunderground v.1.13,2013-01-20 01:09:00,
2013-01-19 16:15:00,4.5,-8.1,30.32,SE,135,0.0,0.0,55,0.00,,,0.00,Wunderground v.1.13,2013-01-20 01:15:00,
2013-01-19 16:20:00,4.3,-8.0,30.32,SE,135,0.0,0.0,56,0.00,,,0.00,Wunderground v.1.13,2013-01-20 01:20:00,
2013-01-19 16:25:00,4.1,-8.1,30.33,SE,135,0.0,0.0,56,0.00,,,0.00,Wunderground v.1.13,2013-01-20 01:25:00,
2013-01-19 16:30:00,4.5,-7.8,30.33,SE,135,1.0,1.0,56,0.00,,,0.00,Wunderground v.1.13,2013-01-20 01:30:00,
2013-01-19 16:35:00,4.8,-7.9,30.33,SE,135,0.0,0.0,55,0.00,,,0.00,Wunderground v.1.13,2013-01-20 01:35:00,
2013-01-19 16:40:00,5.0,-8.0,30.32,SE,143,0.0,1.0,54,0.00,,,0.00,Wunderground v.1.13,2013-01-20 01:40:00,
2013-01-19 16:45:00,5.0,-7.7,30.32,SE,143,0.0,0.0,55,0.00,,,0.00,Wunderground v.1.13,2013-01-20 01:45:00,
2013-01-19 16:50:00,4.8,-7.5,30.32,SE,143,0.0,0.0,56,0.00,,,0.00,Wunderground v.1.13,2013-01-20 01:50:00,
2013-01-19 16:56:00,4.8,-7.1,30.32,SE,143,0.0,0.0,57,0.00,,,0.00,Wunderground v.1.13,2013-01-20 01:56:00,
2013-01-19 17:01:00,4.8,-7.1,30.32,SE,143,0.0,0.0,57,0.00,,,0.00,Wunderground v.1.13,2013-01-20 02:01:00,
2013-01-19 17:07:00,4.7,-7.6,30.32,SE,143,0.0,0.0,56,0.00,,,0.00,Wunderground v.1.13,2013-01-20 02:07:00,
2013-01-19 17:12:00,4.8,-7.9,30.31,SE,143,0.0,0.0,55,0.00,,,0.00,Wunderground v.1.13,2013-01-20 02:12:00,
2013-01-19 17:17:00,4.8,-7.5,30.31,SE,143,0.0,0.0,56,0.00,,,0.00,Wunderground v.1.13,2013-01-20 02:17:00,
2013-01-19 17:22:00,5.0,-7.3,30.31,SE,143,0.0,0.0,56,0.00,,,0.00,Wunderground v.1.13,2013-01-20 02:22:00,
2013-01-19 17:27:00,5.0,-7.7,30.30,SE,143,0.0,0.0,55,0.00,,,0.00,Wunderground v.1.13,2013-01-20 02:27:00,
2013-01-19 17:32:00,5.2,-6.7,30.30,SE,143,0.0,0.0,57,0.00,,,0.00,Wunderground v.1.13,2013-01-20 02:32:00,
2013-01-19 17:37:00,5.2,-7.1,30.30,SE,143,0.0,0.0,56,0.00,,,0.00,Wunderground v.1.13,2013-01-20 02:37:00,
2013-01-19 17:43:00,5.4,-6.9,30.29,SE,143,0.0,0.0,56,0.00,,,0.00,Wunderground v.1.13,2013-01-20 02:43:00,
2013-01-19 17:48:00,5.4,-6.9,30.29,SE,143,0.0,0.0,56,0.00,,,0.00,Wunderground v.1.13,2013-01-20 02:48:00,
2013-01-19 17:53:00,5.6,-7.1,30.29,SE,143,0.0,0.0,55,0.00,,,0.00,Wunderground v.1.13,2013-01-20 02:53:00,
2013-01-19 17:58:00,5.6,-6.7,30.29,SE,143,0.0,0.0,56,0.00,,,0.00,Wunderground v.1.13,2013-01-20 02:58:00,
2013-01-19 18:04:00,5.6,-6.4,30.29,SE,143,0.0,0.0,57,0.00,,,0.00,Wunderground v.1.13,2013-01-20 03:04:00,
2013-01-19 18:09:00,5.4,-6.9,30.29,SE,143,0.0,0.0,56,0.00,,,0.00,Wunderground v.1.13,2013-01-20 03:09:00,
2013-01-19 18:14:00,5.2,-6.4,30.29,SE,143,0.0,0.0,58,0.00,,,0.00,Wunderground v.1.13,2013-01-20 03:14:00,
2013-01-19 18:19:00,5.2,-6.7,30.29,SE,143,0.0,0.0,57,0.00,,,0.00,Wunderground v.1.13,2013-01-20 03:19:00,
2013-01-19 18:24:00,5.0,-6.9,30.29,SE,143,0.0,0.0,57,0.00,,,0.00,Wunderground v.1.13,2013-01-20 03:24:00,
2013-01-19 18:29:00,5.2,-6.7,30.29,SE,143,0.0,0.0,57,0.00,,,0.00,Wunderground v.1.13,2013-01-20 03:29:00,
2013-01-19 18:34:00,5.2,-6.0,30.29,SE,143,0.0,0.0,59,0.00,,,0.00,Wunderground v.1.13,2013-01-20 03:34:00,
2013-01-19 18:39:00,5.2,-6.0,30.29,SE,143,0.0,0.0,59,0.00,,,0.00,Wunderground v.1.13,2013-01-20 03:39:00,
2013-01-19 18:44:00,5.2,-5.7,30.28,SE,143,0.0,0.0,60,0.00,,,0.00,Wunderground v.1.13,2013-01-20 03:44:00,
2013-01-19 18:49:00,5.4,-5.5,30.28,SE,143,0.0,0.0,60,0.00,,,0.00,Wunderground v.1.13,2013-01-20 03:49:00,
2013-01-19 18:54:00,5.2,-6.4,30.28,SE,143,0.0,0.0,58,0.00,,,0.00,Wunderground v.1.13,2013-01-20 03:54:00,
2013-01-19 18:59:00,5.4,-5.8,30.28,SE,143,0.0,0.0,59,0.00,,,0.00,Wunderground v.1.13,2013-01-20 03:59:00,
2013-01-19 19:05:00,5.6,-6.0,30.28,SE,143,0.0,0.0,58,0.00,,,0.00,Wunderground v.1.13,2013-01-20 04:05:00,
2013-01-19 19:10:00,5.6,-6.4,30.27,SE,143,0.0,0.0,57,0.00,,,0.00,Wunderground v.1.13,2013-01-20 04:10:00,
2013-01-19 19:15:00,5.8,-5.8,30.27,SE,143,0.0,0.0,58,0.00,,,0.00,Wunderground v.1.13,2013-01-20 04:15:00,
2013-01-19 19:20:00,5.8,-6.5,30.27,SE,143,0.0,0.0,56,0.00,,,0.00,Wunderground v.1.13,2013-01-20 04:20:00,
2013-01-19 19:25:00,5.8,-6.5,30.27,SE,143,0.0,0.0,56,0.00,,,0.00,Wunderground v.1.13,2013-01-20 04:25:00,
2013-01-19 19:30:00,5.8,-5.8,30.27,SE,143,0.0,0.0,58,0.00,,,0.00,Wunderground v.1.13,2013-01-20 04:30:00,
2013-01-19 19:35:00,6.0,-6.4,30.27,SE,143,0.0,0.0,56,0.00,,,0.00,Wunderground v.1.13,2013-01-20 04:35:00,
2013-01-19 19:40:00,5.8,-6.5,30.26,SE,143,0.0,0.0,56,0.00,,,0.00,Wunderground v.1.13,2013-01-20 04:40:00,
2013-01-19 19:45:00,6.0,-6.0,30.26,SE,143,0.0,0.0,57,0.00,,,0.00,Wunderground v.1.13,2013-01-20 04:45:00,
2013-01-19 19:50:00,6.0,-6.7,30.26,SE,143,0.0,0.0,55,0.00,,,0.00,Wunderground v.1.13,2013-01-20 04:50:00,
2013-01-19 19:55:00,6.0,-6.7,30.26,SE,143,0.0,0.0,55,0.00,,,0.00,Wunderground v.1.13,2013-01-20 04:55:00,
2013-01-19 20:01:00,6.0,-6.0,30.26,SE,143,0.0,0.0,57,0.00,,,0.00,Wunderground v.1.13,2013-01-20 05:01:00,
2013-01-19 20:04:00,6.0,-5.6,30.26,SE,143,0.0,0.0,58,0.00,,,0.00,Wunderground v.1.13,2013-01-20 05:04:00,
2013-01-19 20:09:00,5.8,-5.8,30.26,SE,143,0.0,0.0,58,0.00,,,0.00,Wunderground v.1.13,2013-01-20 05:09:00,
2013-01-19 20:14:00,5.8,-5.8,30.25,SE,143,0.0,1.0,58,0.00,,,0.00,Wunderground v.1.13,2013-01-20 05:14:00,
2013-01-19 20:19:00,5.6,-5.7,30.25,SE,143,0.0,0.0,59,0.00,,,0.00,Wunderground v.1.13,2013-01-20 05:19:00,
2013-01-19 20:24:00,5.4,-5.8,30.25,SE,143,0.0,0.0,59,0.00,,,0.00,Wunderground v.1.13,2013-01-20 05:24:00,
2013-01-19 20:29:00,5.2,-6.0,30.25,SE,143,0.0,0.0,59,0.00,,,0.00,Wunderground v.1.13,2013-01-20 05:29:00,
2013-01-19 20:34:00,5.0,-5.9,30.25,SE,143,0.0,0.0,60,0.00,,,0.00,Wunderground v.1.13,2013-01-20 05:34:00,
2013-01-19 20:39:00,5.0,-5.9,30.25,SE,143,0.0,0.0,60,0.00,,,0.00,Wunderground v.1.13,2013-01-20 05:39:00,
2013-01-19 20:44:00,4.7,-6.2,30.24,SE,143,0.0,0.0,60,0.00,,,0.00,Wunderground v.1.13,2013-01-20 05:44:00,
2013-01-19 20:49:00,4.7,-6.5,30.24,SE,143,0.0,1.0,59,0.00,,,0.00,Wunderground v.1.13,2013-01-20 05:49:00,
2013-01-19 20:54:00,4.8,-6.8,30.23,SE,140,0.0,0.0,58,0.00,,,0.00,Wunderground v.1.13,2013-01-20 05:54:00,
2013-01-19 20:59:00,4.8,-6.4,30.23,SE,139,0.0,1.0,59,0.00,,,0.00,Wunderground v.1.13,2013-01-20 05:59:00,
2013-01-19 21:04:00,4.7,-6.2,30.23,SE,139,0.0,0.0,60,0.00,,,0.00,Wunderground v.1.13,2013-01-20 06:04:00,
2013-01-19 21:09:00,4.5,-6.0,30.23,ESE,109,0.0,0.0,61,0.00,,,0.00,Wunderground v.1.13,2013-01-20 06:09:00,
2013-01-19 21:14:00,4.3,-6.2,30.23,ESE,109,0.0,0.0,61,0.00,,,0.00,Wunderground v.1.13,2013-01-20 06:14:00,